Change the Weather History Date:

Friday, November 12, 2010

  Actual Average Record
Temperature  
Mean Temperature 80 °F -  
Max Temperature 89 °F 81 °F 93 °F (2001)
Min Temperature 70 °F 64 °F 64 °F (2011)
Cooling Degree Days 14    
Growing Degree Days 30 (Base 50)    
Moisture  
Dew Point 59 °F    
Average Humidity 50    
Maximum Humidity 78    
Minimum Humidity 19    
Precipitation  
Precipitation 0.00 in 0.01 in - ()
Sea Level Pressure  
Sea Level Pressure 29.90 in    
Wind  
Wind Speed 7 mph ()    
Max Wind Speed 15 mph    
Max Gust Speed -    
Visibility 6.1 miles    
Events      
Averages and records for this station are not official NWS values.
T = Trace of Precipitation, MM = Missing Value Source: Averaged Metar Reports

Daily Weather History Graph

Daily Weather History Graph

Search for Another Location

Airport or City:

Trip Planner

Search our weather history database for the weather conditions in past years. The results will help you decide how hot, cold, wet, or windy it might be!

Date:

Astronomy

Nov. 12, 2010 Rise Set
Actual Time 5:48 AM AST 4:46 PM AST
Civil Twilight 5:24 AM AST 5:11 PM AST
Nautical Twilight 4:56 AM AST 5:38 PM AST
Astronomical Twilight 4:29 AM AST 6:05 PM AST
Moon 11:07 AM AST (11/12) 10:26 PM AST (11/12)
Length of Visible Light 11h 46m
Length of Day
10h 58m
Waxing Crescent, 37% of the Moon is Illuminated
Nov 12
Waxing Crescent
Nov 13
First Quarter
Nov 21
Full
Nov 28
Last Quarter
Dec 5
New

Hourly Weather History & Observations

Time (AST) Temp. Heat Index Dew Point Humidity Pressure Visibility Wind Dir Wind Speed Gust Speed Precip Events Conditions
12:00 AM 75.2 °F - 68.0 °F 78% 29.92 in 5.0 mi WSW 4.6 mph - N/A   Unknown
12:30 AM 75.2 °F - 66.2 °F 73% 29.92 in 5.0 mi WSW 4.6 mph - N/A   Unknown
1:00 AM 75.2 °F - 66.2 °F 73% 29.92 in 5.0 mi WSW 5.8 mph - N/A   Unknown
1:30 AM 75.2 °F - 64.4 °F 69% 29.92 in 5.6 mi WSW 5.8 mph - N/A   Unknown
2:00 AM 75.2 °F - 60.8 °F 61% 29.92 in 5.6 mi WSW 5.8 mph - N/A   Unknown
2:30 AM 75.2 °F - 60.8 °F 61% 29.92 in 5.6 mi WSW 6.9 mph - N/A   Unknown
3:00 AM 74 °F - 63 °F 59% 29.91 in 6 mi WSW 8.1 mph - -   Haze
3:30 AM 73.4 °F - 62.6 °F 69% 29.89 in 5.6 mi WSW 5.8 mph - N/A   Unknown
4:00 AM 73.4 °F - 62.6 °F 69% 30.06 in 5.6 mi North - - N/A   Unknown
4:30 AM 73.4 °F - 59.0 °F 61% 29.92 in 5.6 mi WNW 4.6 mph - N/A   Unknown
5:00 AM 73.4 °F - 59.0 °F 61% 29.92 in - West 4.6 mph - N/A   Clear
5:30 AM 71.6 °F - 59.0 °F 64% 29.92 in - West 4.6 mph - N/A   Clear
6:00 AM 71.6 °F - 59.0 °F 64% 29.92 in - WSW 4.6 mph - N/A   Clear
6:30 AM 71.6 °F - 59.0 °F 64% 29.92 in - West 4.6 mph - N/A   Clear
7:00 AM - - - N/A% 29.95 in - West 4.6 mph - N/A   Clear
7:30 AM 75.2 °F - 60.8 °F 61% 29.95 in - West 4.6 mph - N/A   Clear
8:00 AM 77.0 °F - 62.6 °F 61% 29.95 in - WNW 4.6 mph - N/A   Clear
8:30 AM 78.8 °F - 62.6 °F 57% 29.95 in - WNW 6.9 mph - N/A   Clear
9:00 AM 80 °F - 62 °F 44% 29.95 in 6 mi WNW 8.1 mph - -  
9:00 AM 80.6 °F 81.8 °F 62.6 °F 54% 29.95 in - WNW 8.1 mph - N/A   Clear
9:30 AM 82.4 °F 83.4 °F 62.6 °F 51% 29.92 in - WNW 8.1 mph - N/A   Clear
10:00 AM 82.4 °F 83.4 °F 62.6 °F 51% 29.92 in - WNW 9.2 mph - N/A   Clear
10:30 AM 84.2 °F 85.0 °F 62.6 °F 48% 29.92 in - NW 9.2 mph - N/A   Clear
11:00 AM 86.0 °F 86.1 °F 60.8 °F 43% 29.89 in - WNW 8.1 mph - N/A   Clear
11:30 AM 86.0 °F 86.1 °F 60.8 °F 43% 29.89 in - NW 10.4 mph - N/A   Clear
12:00 PM 87.8 °F 86.1 °F 55.4 °F 33% 29.86 in 6.2 mi NW 11.5 mph - N/A   Partly Cloudy
12:30 PM 87.8 °F - 51.8 °F 29% 29.86 in - NW 11.5 mph - N/A   Clear
1:00 PM 87.8 °F 85.7 °F 53.6 °F 31% 29.83 in - NW 11.5 mph - N/A   Clear
1:30 PM 87.8 °F - 50.0 °F 27% 29.83 in - NNW 13.8 mph - N/A   Clear
2:00 PM 87.8 °F - 50.0 °F 27% 29.83 in - NW 12.7 mph - N/A   Clear
2:30 PM 87.8 °F - 51.8 °F 29% 29.83 in 6.2 mi NW 13.8 mph - N/A   Partly Cloudy
3:00 PM 87 °F - 51 °F 19% 29.84 in 9 mi NW 15.0 mph - -   Scattered Clouds
3:00 PM 87.8 °F - 51.8 °F 29% 29.83 in 6.2 mi NW 15.0 mph - N/A   Partly Cloudy
3:30 PM 86.0 °F - 51.8 °F 31% 29.83 in - NNW 13.8 mph - N/A   Clear
4:00 PM 86.0 °F - 51.8 °F 31% 29.83 in - NNW 12.7 mph - N/A   Clear
4:30 PM 84.2 °F 83.0 °F 55.4 °F 37% 29.86 in 6.2 mi NW 10.4 mph - N/A   Partly Cloudy
5:00 PM 84.2 °F 83.5 °F 57.2 °F 40% 29.86 in 6.2 mi NW 10.4 mph - N/A   Partly Cloudy
5:30 PM 82.4 °F 82.0 °F 57.2 °F 42% 29.86 in - NNW 11.5 mph - N/A   Clear
6:00 PM 82.4 °F 82.5 °F 59.0 °F 45% 29.86 in - NNW 11.5 mph - N/A   Clear
6:30 PM 82.4 °F 82.5 °F 59.0 °F 45% 29.86 in - NNW 10.4 mph - N/A   Clear
7:00 PM 80.6 °F 81.5 °F 60.8 °F 51% 29.89 in - NNW 9.2 mph - N/A   Clear
7:30 PM 80.6 °F 81.8 °F 62.6 °F 54% 29.89 in - NNW 8.1 mph - N/A   Clear
8:00 PM 80.6 °F 81.5 °F 60.8 °F 51% 29.89 in - North - - N/A   Clear
8:30 PM 78.8 °F - 60.8 °F 54% 29.89 in - NW 8.1 mph - N/A   Clear
9:00 PM 79 °F - 60 °F 41% 29.91 in 9 mi NW 6.9 mph - -  
9:00 PM 78.8 °F - 59.0 °F 51% 29.89 in - NW 6.9 mph - N/A   Clear
9:30 PM 78.8 °F - 59.0 °F 51% 29.89 in - NW 6.9 mph - N/A   Clear
10:00 PM 78.8 °F - 59.0 °F 51% 29.89 in - NW 5.8 mph - N/A   Clear
10:30 PM 77.0 °F - 59.0 °F 54% 29.89 in - NW 5.8 mph - N/A   Clear
11:00 PM 77.0 °F - 59.0 °F 54% 29.89 in - NW 4.6 mph - N/A   Clear
11:30 PM 77.0 °F - 57.2 °F 50% 29.89 in - NW 4.6 mph - N/A   Clear